Time,TemperatureF,DewpointF,PressureIn,WindDirection,WindDirectionDegrees,WindSpeedMPH,WindSpeedGustMPH,Humidity,HourlyPrecipIn,Conditions,Clouds,dailyrainin,SoftwareType,DateUTC
2013-07-31 00:21:00,65.2,62.0,30.05,SE,125,2.0,7.0,89,0.00,,,0.00,weatherlink.com 1.10,2013-07-31 05:21:00,
2013-07-31 00:36:00,65.1,62.0,30.05,SSE,155,1.0,7.0,90,0.00,,,0.00,weatherlink.com 1.10,2013-07-31 05:36:00,
2013-07-31 01:06:00,64.8,63.0,30.04,SE,129,2.0,7.0,93,0.01,,,0.01,weatherlink.com 1.10,2013-07-31 06:06:00,
2013-07-31 01:21:00,64.8,63.0,30.04,ESE,120,1.0,4.0,93,0.01,,,0.01,weatherlink.com 1.10,2013-07-31 06:21:00,
2013-07-31 01:36:00,64.9,63.0,30.04,SE,145,2.0,5.0,93,0.01,,,0.01,weatherlink.com 1.10,2013-07-31 06:36:00,
2013-07-31 01:51:00,65.0,63.0,30.03,SE,132,1.0,5.0,94,0.00,,,0.01,weatherlink.com 1.10,2013-07-31 06:51:00,
2013-07-31 02:06:00,65.0,63.0,30.03,SE,137,1.0,3.0,94,0.00,,,0.01,weatherlink.com 1.10,2013-07-31 07:06:00,
2013-07-31 02:36:00,65.2,64.0,30.02,SE,132,0.0,4.0,94,0.01,,,0.02,weatherlink.com 1.10,2013-07-31 07:36:00,
2013-07-31 02:51:00,65.3,64.0,30.02,SE,129,0.0,2.0,94,0.02,,,0.03,weatherlink.com 1.10,2013-07-31 07:51:00,
2013-07-31 03:06:00,65.4,64.0,30.02,ESE,121,0.0,3.0,94,0.02,,,0.03,weatherlink.com 1.10,2013-07-31 08:06:00,
2013-07-31 03:21:00,65.4,64.0,30.02,SE,136,2.0,3.0,94,0.01,,,0.03,weatherlink.com 1.10,2013-07-31 08:21:00,
2013-07-31 03:37:00,65.5,64.0,30.01,SE,126,3.0,3.0,94,0.01,,,0.03,weatherlink.com 1.10,2013-07-31 08:37:00,
2013-07-31 03:52:00,65.6,64.0,30.01,SE,142,1.0,4.0,95,0.00,,,0.03,weatherlink.com 1.10,2013-07-31 08:52:00,
2013-07-31 04:06:00,65.6,64.0,30.00,SSE,155,2.0,4.0,95,0.01,,,0.04,weatherlink.com 1.10,2013-07-31 09:06:00,
2013-07-31 04:22:00,65.7,64.0,30.00,SSE,159,1.0,5.0,95,0.01,,,0.04,weatherlink.com 1.10,2013-07-31 09:22:00,
2013-07-31 04:37:00,65.8,64.0,30.00,South,171,0.0,4.0,95,0.01,,,0.04,weatherlink.com 1.10,2013-07-31 09:37:00,
2013-07-31 04:52:00,65.9,65.0,30.00,SSE,168,2.0,3.0,95,0.01,,,0.04,weatherlink.com 1.10,2013-07-31 09:52:00,
2013-07-31 05:07:00,65.9,65.0,30.00,SSE,165,2.0,4.0,95,0.00,,,0.04,weatherlink.com 1.10,2013-07-31 10:07:00,
2013-07-31 05:22:00,65.9,65.0,30.01,South,179,2.0,3.0,95,0.01,,,0.05,weatherlink.com 1.10,2013-07-31 10:22:00,
2013-07-31 05:37:00,65.9,65.0,30.00,South,174,3.0,3.0,95,0.01,,,0.05,weatherlink.com 1.10,2013-07-31 10:37:00,
2013-07-31 05:52:00,66.0,65.0,30.01,South,169,4.0,4.0,95,0.01,,,0.05,weatherlink.com 1.10,2013-07-31 10:52:00,
2013-07-31 06:07:00,66.0,65.0,30.01,South,169,0.0,2.0,95,0.00,,,0.05,weatherlink.com 1.10,2013-07-31 11:07:00,
2013-07-31 06:22:00,66.1,65.0,30.01,South,169,1.0,3.0,95,0.00,,,0.05,weatherlink.com 1.10,2013-07-31 11:22:00,
2013-07-31 06:37:00,66.2,65.0,30.00,SSW,192,2.0,5.0,95,0.00,,,0.05,weatherlink.com 1.10,2013-07-31 11:37:00,
2013-07-31 06:53:00,66.3,65.0,30.01,South,186,2.0,4.0,95,0.00,,,0.05,weatherlink.com 1.10,2013-07-31 11:53:00,
2013-07-31 07:07:00,66.4,65.0,30.01,SSW,194,4.0,5.0,95,0.00,,,0.05,weatherlink.com 1.10,2013-07-31 12:07:00,
2013-07-31 07:22:00,66.5,65.0,30.01,SSW,192,0.0,3.0,95,0.00,,,0.05,weatherlink.com 1.10,2013-07-31 12:22:00,
2013-07-31 07:37:00,66.7,65.0,30.01,SSW,192,0.0,3.0,95,0.00,,,0.05,weatherlink.com 1.10,2013-07-31 12:37:00,
2013-07-31 07:52:00,67.0,66.0,30.01,South,184,0.0,4.0,95,0.00,,,0.05,weatherlink.com 1.10,2013-07-31 12:52:00,
2013-07-31 08:07:00,67.0,66.0,30.00,South,183,2.0,3.0,95,0.00,,,0.05,weatherlink.com 1.10,2013-07-31 13:07:00,
2013-07-31 08:22:00,67.3,66.0,30.00,South,183,0.0,2.0,95,0.01,,,0.06,weatherlink.com 1.10,2013-07-31 13:22:00,
2013-07-31 08:37:00,67.5,66.0,30.01,South,183,0.0,2.0,95,0.02,,,0.07,weatherlink.com 1.10,2013-07-31 13:37:00,
2013-07-31 08:52:00,67.8,66.0,30.01,SSW,192,0.0,2.0,95,0.02,,,0.07,weatherlink.com 1.10,2013-07-31 13:52:00,
2013-07-31 09:07:00,67.8,66.0,30.00,South,180,1.0,3.0,95,0.02,,,0.07,weatherlink.com 1.10,2013-07-31 14:07:00,
2013-07-31 09:22:00,68.4,67.0,30.00,South,190,1.0,3.0,95,0.01,,,0.07,weatherlink.com 1.10,2013-07-31 14:22:00,
2013-07-31 09:37:00,69.2,68.0,29.99,SSW,193,0.0,2.0,95,0.00,,,0.07,weatherlink.com 1.10,2013-07-31 14:37:00,
2013-07-31 09:52:00,69.8,68.0,29.99,SW,233,0.0,3.0,95,0.00,,,0.07,weatherlink.com 1.10,2013-07-31 14:52:00,
2013-07-31 10:07:00,70.3,69.0,29.99,SSW,211,0.0,2.0,95,0.00,,,0.07,weatherlink.com 1.10,2013-07-31 15:07:00,
2013-07-31 10:22:00,71.0,70.0,29.99,SW,223,0.0,2.0,95,0.00,,,0.07,weatherlink.com 1.10,2013-07-31 15:22:00,
2013-07-31 10:37:00,71.6,70.0,29.99,WSW,240,0.0,3.0,95,0.00,,,0.07,weatherlink.com 1.10,2013-07-31 15:37:00,
2013-07-31 10:52:00,72.4,71.0,29.99,West,273,0.0,3.0,95,0.00,,,0.07,weatherlink.com 1.10,2013-07-31 15:52:00,
2013-07-31 11:07:00,71.9,70.0,29.99,WSW,250,1.0,2.0,92,0.00,,,0.07,weatherlink.com 1.10,2013-07-31 16:07:00,
2013-07-31 11:22:00,71.2,69.0,29.99,West,278,1.0,2.0,91,0.00,,,0.07,weatherlink.com 1.10,2013-07-31 16:22:00,
2013-07-31 11:37:00,71.7,69.0,29.99,West,272,1.0,4.0,90,0.00,,,0.07,weatherlink.com 1.10,2013-07-31 16:37:00,
2013-07-31 11:52:00,71.7,69.0,29.98,WNW,286,0.0,7.0,90,0.00,,,0.07,weatherlink.com 1.10,2013-07-31 16:52:00,
2013-07-31 12:07:00,72.0,69.0,29.98,WSW,258,0.0,2.0,89,0.00,,,0.07,weatherlink.com 1.10,2013-07-31 17:07:00,
2013-07-31 12:22:00,72.1,69.0,29.98,West,277,0.0,4.0,89,0.00,,,0.07,weatherlink.com 1.10,2013-07-31 17:22:00,
2013-07-31 12:37:00,72.5,69.0,29.98,West,280,0.0,3.0,88,0.00,,,0.07,weatherlink.com 1.10,2013-07-31 17:37:00,
2013-07-31 12:52:00,72.7,68.0,29.97,NW,315,0.0,3.0,86,0.00,,,0.07,weatherlink.com 1.10,2013-07-31 17:52:00,
2013-07-31 13:07:00,74.1,69.0,29.97,West,271,0.0,6.0,85,0.00,,,0.07,weatherlink.com 1.10,2013-07-31 18:07:00,
2013-07-31 13:23:00,73.4,69.0,29.97,NNW,335,2.0,5.0,85,0.00,,,0.07,weatherlink.com 1.10,2013-07-31 18:23:00,
2013-07-31 13:38:00,72.6,68.0,29.97,NNE,17,0.0,4.0,86,0.00,,,0.07,weatherlink.com 1.10,2013-07-31 18:38:00,
2013-07-31 13:53:00,73.0,69.0,29.97,WNW,291,0.0,3.0,86,0.00,,,0.07,weatherlink.com 1.10,2013-07-31 18:53:00,
2013-07-31 14:08:00,73.3,69.0,29.96,NNW,341,0.0,2.0,86,0.00,,,0.07,weatherlink.com 1.10,2013-07-31 19:08:00,
2013-07-31 14:23:00,74.6,70.0,29.96,NNW,329,2.0,5.0,84,0.00,,,0.07,weatherlink.com 1.10,2013-07-31 19:23:00,
2013-07-31 14:38:00,74.1,69.0,29.97,WNW,287,2.0,6.0,84,0.00,,,0.07,weatherlink.com 1.10,2013-07-31 19:38:00,
2013-07-31 14:53:00,74.2,70.0,29.96,NW,313,1.0,4.0,85,0.00,,,0.07,weatherlink.com 1.10,2013-07-31 19:53:00,
2013-07-31 15:08:00,74.6,69.0,29.96,WNW,282,2.0,7.0,83,0.00,,,0.07,weatherlink.com 1.10,2013-07-31 20:08:00,
2013-07-31 15:23:00,74.5,69.0,29.96,NNW,345,0.0,4.0,83,0.00,,,0.07,weatherlink.com 1.10,2013-07-31 20:23:00,
2013-07-31 15:38:00,74.9,69.0,29.95,NW,305,5.0,6.0,83,0.00,,,0.07,weatherlink.com 1.10,2013-07-31 20:38:00,
2013-07-31 15:53:00,75.2,69.0,29.95,West,273,1.0,5.0,82,0.00,,,0.07,weatherlink.com 1.10,2013-07-31 20:53:00,
2013-07-31 16:08:00,76.0,70.0,29.95,West,265,1.0,8.0,81,0.00,,,0.07,weatherlink.com 1.10,2013-07-31 21:08:00,
2013-07-31 16:23:00,76.7,70.0,29.94,NW,324,0.0,3.0,80,0.00,,,0.07,weatherlink.com 1.10,2013-07-31 21:23:00,
2013-07-31 16:38:00,76.6,70.0,29.94,WNW,286,2.0,8.0,79,0.00,,,0.07,weatherlink.com 1.10,2013-07-31 21:38:00,
2013-07-31 16:53:00,75.8,69.0,29.94,NNW,342,4.0,8.0,80,0.00,,,0.07,weatherlink.com 1.10,2013-07-31 21:53:00,
2013-07-31 17:08:00,75.2,69.0,29.93,WNW,283,0.0,8.0,80,0.00,,,0.07,weatherlink.com 1.10,2013-07-31 22:08:00,
2013-07-31 17:23:00,75.7,69.0,29.93,West,275,1.0,5.0,80,0.00,,,0.07,weatherlink.com 1.10,2013-07-31 22:23:00,
2013-07-31 17:38:00,74.6,68.0,29.93,WNW,296,0.0,7.0,80,0.00,,,0.07,weatherlink.com 1.10,2013-07-31 22:38:00,
2013-07-31 17:53:00,74.6,67.0,29.93,SSW,194,3.0,6.0,78,0.00,,,0.07,weatherlink.com 1.10,2013-07-31 22:53:00,
2013-07-31 18:08:00,74.1,68.0,29.93,West,266,4.0,9.0,80,0.00,,,0.07,weatherlink.com 1.10,2013-07-31 23:08:00,
2013-07-31 18:23:00,73.6,67.0,29.93,WNW,296,2.0,4.0,81,0.00,,,0.07,weatherlink.com 1.10,2013-07-31 23:23:00,
2013-07-31 18:38:00,73.1,67.0,29.93,WNW,289,2.0,6.0,81,0.00,,,0.07,weatherlink.com 1.10,2013-07-31 23:38:00,
2013-07-31 18:53:00,72.6,67.0,29.93,NNW,330,2.0,5.0,83,0.00,,,0.07,weatherlink.com 1.10,2013-07-31 23:53:00,
2013-07-31 19:08:00,72.7,67.0,29.93,SW,220,0.0,9.0,82,0.00,,,0.07,weatherlink.com 1.10,2013-08-01 00:08:00,
2013-07-31 19:23:00,72.4,67.0,29.93,West,269,0.0,6.0,82,0.00,,,0.07,weatherlink.com 1.10,2013-08-01 00:23:00,
2013-07-31 19:38:00,71.7,67.0,29.94,WNW,287,1.0,4.0,84,0.00,,,0.07,weatherlink.com 1.10,2013-08-01 00:38:00,
2013-07-31 19:53:00,71.3,67.0,29.94,WNW,303,0.0,2.0,85,0.00,,,0.07,weatherlink.com 1.10,2013-08-01 00:53:00,
2013-07-31 20:08:00,70.9,67.0,29.94,WNW,291,0.0,3.0,86,0.00,,,0.07,weatherlink.com 1.10,2013-08-01 01:08:00,
2013-07-31 20:23:00,69.8,66.0,29.94,WNW,291,0.0,0.0,86,0.00,,,0.07,weatherlink.com 1.10,2013-08-01 01:23:00,
2013-07-31 20:38:00,68.5,65.0,29.93,WNW,291,0.0,0.0,88,0.00,,,0.07,weatherlink.com 1.10,2013-08-01 01:38:00,
2013-07-31 20:53:00,67.4,64.0,29.94,WNW,291,0.0,0.0,89,0.00,,,0.07,weatherlink.com 1.10,2013-08-01 01:53:00,
2013-07-31 21:08:00,66.5,64.0,29.95,WNW,291,0.0,0.0,90,0.00,,,0.07,weatherlink.com 1.10,2013-08-01 02:08:00,
2013-07-31 21:23:00,66.2,64.0,29.95,WNW,291,0.0,2.0,91,0.00,,,0.07,weatherlink.com 1.10,2013-08-01 02:23:00,
2013-07-31 21:38:00,65.4,63.0,29.95,WNW,295,0.0,1.0,92,0.00,,,0.07,weatherlink.com 1.10,2013-08-01 02:38:00,
2013-07-31 21:53:00,65.4,63.0,29.95,WNW,296,0.0,0.0,93,0.00,,,0.07,weatherlink.com 1.10,2013-08-01 02:53:00,
2013-07-31 22:08:00,64.8,63.0,29.96,WNW,295,0.0,0.0,92,0.00,,,0.07,weatherlink.com 1.10,2013-08-01 03:08:00,
2013-07-31 22:23:00,64.5,62.0,29.96,WNW,295,0.0,0.0,92,0.00,,,0.07,weatherlink.com 1.10,2013-08-01 03:23:00,
2013-07-31 22:38:00,63.9,62.0,29.96,WNW,295,0.0,0.0,93,0.00,,,0.07,weatherlink.com 1.10,2013-08-01 03:38:00,
2013-07-31 22:53:00,63.2,61.0,29.96,WNW,295,0.0,0.0,92,0.00,,,0.07,weatherlink.com 1.10,2013-08-01 03:53:00,
2013-07-31 23:08:00,62.8,61.0,29.96,WNW,295,0.0,0.0,93,0.00,,,0.07,weatherlink.com 1.10,2013-08-01 04:08:00,
2013-07-31 23:23:00,62.9,61.0,29.96,WNW,295,0.0,0.0,94,0.00,,,0.07,weatherlink.com 1.10,2013-08-01 04:23:00,
2013-07-31 23:38:00,62.9,61.0,29.96,WNW,295,0.0,0.0,93,0.00,,,0.07,weatherlink.com 1.10,2013-08-01 04:38:00,
2013-07-31 23:53:00,62.9,61.0,29.96,WNW,296,0.0,0.0,94,0.00,,,0.07,weatherlink.com 1.10,2013-08-01 04:53:00,